Wind_Speed
6 8 14 13 7 16 15 15 12 12 10 8 12 13 14 16 16 14 13 13 11 13 11 9 10 11 11 11 10 9 8 8 8 10 12 11 11 10 11 11 11 12 13 13 14 14 14 14 15
6 8 14 11 11 19 13 16 14 12 11 11 12 13 12 15 17 15 14 11 9 10 11 10 9 11 12 11 10 9 5 8 9 10 12 12 11 11 12 12 12 13 13 13 12 14 15 15 15
7 10 15 13 16 14 14 18 14 14 15 14 14 14 12 14 13 14 14 13 8 8 9 10 10 10 10 10 10 8 8 9 10 13 14 14 12 11 11 12 13 13 12 12 13 15 17 14 14
8 9 10 9 6 10 12 15 13 13 11 13 14 13 12 13 12 12 13 13 9 7 8 10 10 10 10 8 8 9 9 11 13 15 15 14 13 11 11 13 13 13 11 7 11 14 20 19 15
8 7 7 6 4 8 11 13 11 14 12 11 11 13 12 12 9 9 12 11 8 7 8 9 11 9 8 8 9 11 12 14 16 17 16 15 13 11 11 12 13 13 12 14 14 19 21 15 16
8 6 7 8 6 6 12 13 12 12 13 12 10 13 14 12 11 9 11 11 8 6 7 8 9 7 7 8 10 11 13 15 16 17 17 16 13 10 12 12 14 14 13 12 14 15 15 14 15
9 6 4 5 2 5 10 17 16 14 13 11 10 13 15 13 11 10 10 11 8 8 7 7 6 4 6 9 11 11 12 14 16 16 16 15 13 9 14 15 15 14 14 13 14 12 15 11 12
9 8 6 2 2 5 8 22 21 16 12 9 10 13 16 14 13 11 11 12 10 8 8 8 5 5 7 9 10 12 13 13 15 15 15 15 17 18 19 18 17 15 14 13 13 12 13 11 10
11 5 4 2 0 4 7 22 21 18 13 10 9 12 14 16 15 14 13 12 11 9 9 7 7 8 8 9 10 11 12 13 13 14 15 15 16 17 17 17 17 15 13 12 11 10 10 11 11
13 9 7 3 1 1 7 16 21 19 15 11 10 12 14 16 17 16 14 13 11 10 8 8 11 13 12 11 12 10 11 11 11 12 15 16 15 16 16 15 14 12 11 11 9 9 9 9 8
14 7 7 5 4 3 6 11 23 21 17 14 13 14 15 14 15 14 14 14 13 10 9 9 12 14 12 11 10 9 10 11 11 12 13 15 15 15 15 13 12 11 11 10 9 8 8 9 10
13 11 10 6 6 7 9 15 25 22 20 14 12 15 18 16 16 15 14 14 12 10 10 9 10 11 12 11 10 10 10 9 9 9 13 14 16 15 14 13 12 11 10 9 8 9 10 11 13
14 13 10 6 3 5 5 12 25 30 23 18 13 11 16 18 17 17 14 13 12 10 8 10 10 11 10 12 10 9 10 7 9 8 10 16 14 12 13 11 11 11 11 12 11 12 15 16 17
16 13 9 5 4 4 3 9 24 30 24 19 16 14 16 18 18 18 17 14 13 11 9 8 10 11 10 12 10 10 13 12 12 10 11 14 14 13 11 11 11 11 14 15 14 15 16 19 19
14 13 10 9 10 4 3 8 21 23 24 20 19 17 17 18 19 19 18 16 13 12 10 8 8 10 10 11 10 9 11 12 11 11 10 13 14 13 11 11 12 15 16 14 13 16 18 19 19
16 14 11 11 11 9 8 9 17 22 27 22 20 17 17 20 18 16 15 15 14 12 10 8 8 11 8 9 10 9 11 20 7 13 15 15 13 13 12 12 13 16 16 16 16 17 18 21 21
17 13 13 14 13 13 11 16 22 24 29 26 21 18 17 18 18 16 15 14 14 13 11 8 8 9 9 9 10 10 10 15 14 12 13 15 14 12 11 12 13 14 15 15 16 19 20 22 20
18 15 14 17 15 14 13 8 17 20 26 24 22 20 17 18 20 19 16 15 14 13 12 11 9 8 10 10 8 8 11 12 13 14 12 15 13 12 10 11 12 12 13 14 16 17 18 19 19
16 15 18 20 17 17 12 15 23 18 21 21 20 18 17 17 18 21 19 17 16 14 12 13 11 8 9 9 8 8 9 10 11 13 14 12 12 11 11 10 10 10 11 12 13 14 14 14 15
26 24 19 22 17 17 13 16 31 23 20 22 21 20 19 18 17 18 19 18 18 16 14 12 12 11 9 8 10 9 9 9 8 9 12 12 13 11 10 10 9 10 9 10 11 11 11 12 12
28 27 30 24 22 24 16 17 16 22 22 22 20 18 18 18 18 17 19 19 18 17 17 13 11 11 10 9 8 8 7 9 9 7 8 10 12 11 8 8 8 8 9 8 10 10 12 12 13
27 24 25 22 26 22 22 22 8 28 27 25 17 16 18 19 20 19 20 22 21 21 20 16 13 12 11 11 9 7 7 7 9 8 6 7 9 10 9 8 9 8 9 9 10 11 11 13 12
21 32 37 29 23 22 25 26 36 29 28 27 18 18 18 19 18 18 19 21 24 23 22 20 16 14 12 11 12 10 9 8 8 9 7 6 6 8 9 8 8 8 8 10 10 8 8 9 10
34 32 35 29 25 24 30 29 33 24 34 32 20 20 19 17 17 20 22 22 23 24 24 21 19 17 16 13 14 12 12 10 9 8 10 8 7 7 7 8 8 8 8 9 9 9 8 8 7
41 35 26 29 29 24 22 21 29 26 35 33 23 21 20 17 15 19 20 22 20 22 24 23 20 20 18 16 15 16 15 14 12 10 8 8 8 8 8 7 8 8 8 7 7 9 8 7 7
40 29 23 22 25 24 21 30 37 33 27 31 28 23 22 20 19 20 22 25 24 23 24 26 24 23 23 20 18 18 18 16 14 11 10 10 10 9 8 9 7 7 7 7 6 6 7 8 7
34 37 23 17 20 24 32 43 42 40 31 30 26 25 24 22 21 24 27 22 21 27 25 26 28 26 25 25 21 21 22 20 16 12 12 11 10 10 9 8 9 8 8 8 8 7 6 5 6
36 31 29 28 22 29 33 38 38 43 35 32 31 27 27 26 25 26 23 22 18 28 29 29 31 31 30 28 25 24 24 23 20 16 14 13 11 9 1 10 8 7 7 8 9 10 10 8 6
40 37 38 28 21 30 25 28 45 39 40 38 35 32 31 30 29 27 26 22 30 25 35 33 33 33 32 31 29 26 26 24 23 21 18 16 14 11 10 10 9 9 8 9 9 10 11 11 10
47 34 31 30 31 25 35 33 38 29 35 40 39 36 34 34 33 32 31 32 31 30 24 21 32 33 32 32 30 28 27 26 24 24 22 19 17 15 11 9 8 10 10 9 9 11 12 12 12
Wind_Direction
69 45 18 27 90 150 146 140 126 131 114 107 125 129 124 123 107 117 110 108 107 104 99 89 89 92 92 88 83 77 83 93 107 121 125 121 116 122 125 117 113 104 107 114 116 114 113 111 107
77 45 32 68 104 136 141 139 132 137 122 109 124 129 131 126 122 126 115 102 103 102 101 97 99 93 94 91 75 69 75 102 116 130 133 133 131 130 136 132 123 114 116 122 126 120 114 109 108
87 63 54 94 109 137 146 143 148 142 118 115 122 127 127 129 130 129 122 113 110 111 104 95 93 97 90 81 71 59 51 94 116 133 139 139 136 132 132 134 126 119 120 134 141 122 116 108 112
96 73 78 92 96 146 161 152 150 147 133 103 123 132 131 128 133 129 122 118 118 113 101 97 95 98 84 76 65 68 78 86 103 122 133 139 136 129 128 134 131 126 123 131 110 155 129 113 108
115 92 85 88 127 175 176 158 155 149 159 143 118 133 131 128 124 123 116 108 111 108 101 105 106 98 86 72 70 68 77 93 101 110 122 132 137 132 128 133 131 129 120 112 116 98 102 105 108
135 126 107 93 88 163 178 168 162 158 146 145 134 140 141 136 130 127 115 111 103 100 101 99 105 103 85 82 83 79 87 98 104 112 118 123 129 135 134 131 131 129 126 121 113 114 117 110 111
156 152 107 93 106 192 222 186 170 161 157 144 147 148 144 142 136 131 122 108 99 92 96 98 107 93 86 92 96 94 95 99 106 108 110 116 110 121 139 126 128 128 126 121 116 110 118 103 110
149 150 133 140 201 257 238 199 180 167 158 151 152 159 151 150 146 141 133 116 103 99 108 112 108 95 97 107 108 99 97 100 104 102 104 104 102 106 121 123 124 122 124 124 121 110 115 111 112
158 157 166 238 302 300 233 211 181 168 164 164 153 159 167 160 157 153 142 126 120 120 124 118 107 104 101 104 111 104 103 103 101 98 96 95 100 108 115 121 126 127 127 116 117 117 116 116 116
171 236 200 243 294 312 196 201 180 167 167 168 158 159 177 173 166 162 149 136 132 132 135 114 106 106 97 112 107 107 115 102 99 101 101 103 107 111 113 114 117 118 116 114 116 113 116 115 114
189 210 213 250 288 269 224 194 181 179 169 178 169 166 174 190 170 164 156 144 141 142 129 112 100 104 106 105 109 108 113 119 108 100 103 97 100 106 110 115 115 114 111 110 115 117 124 123 112
195 208 225 251 289 277 233 213 194 180 171 175 178 172 172 192 173 164 169 156 148 144 132 115 107 110 107 102 113 97 116 119 118 113 105 104 103 100 103 111 112 110 100 106 116 122 124 124 124
207 214 231 238 292 157 171 217 206 191 175 170 171 168 177 184 182 167 173 164 154 150 135 116 105 108 111 100 100 98 103 103 120 124 124 115 103 97 104 104 107 103 95 101 108 119 124 124 119
208 214 225 225 187 171 163 156 208 188 176 169 170 169 177 183 186 170 175 172 161 158 140 121 120 115 102 100 96 96 106 102 103 122 145 132 113 105 106 109 108 98 87 90 105 115 123 122 123
210 216 217 207 206 168 124 175 183 185 167 171 174 169 175 185 193 178 177 174 167 163 154 137 135 119 109 112 107 105 103 100 97 113 128 141 125 116 116 111 112 99 86 93 110 120 125 127 126
206 212 212 213 207 206 192 202 191 200 169 172 172 169 179 187 192 185 180 180 173 169 162 151 148 133 122 121 118 117 107 104 127 108 111 120 119 121 121 117 114 107 99 95 108 115 117 120 118
205 205 196 228 214 192 190 201 205 199 170 170 171 173 178 183 186 188 186 190 180 174 162 153 155 149 138 140 130 119 112 112 116 128 116 120 110 117 121 122 116 108 109 103 110 114 118 115 114
201 182 211 228 214 200 207 233 220 206 185 171 177 180 176 180 182 185 190 193 188 180 167 153 160 164 144 138 133 125 118 114 120 133 125 118 117 114 118 122 121 118 115 111 107 115 118 116 111
204 184 189 229 210 212 205 214 205 181 186 165 181 183 184 188 189 185 187 193 194 186 179 167 158 166 153 138 139 139 122 116 125 132 134 130 122 124 119 116 118 124 125 122 122 120 125 122 112
170 203 211 210 200 209 214 203 217 211 208 183 187 188 190 197 192 192 189 195 196 195 191 185 162 161 171 170 161 149 143 131 125 131 141 135 130 125 120 120 123 123 132 140 141 139 134 133 124
185 194 218 216 206 217 220 216 220 207 196 204 201 200 197 197 199 190 193 197 199 203 203 196 173 169 174 182 172 151 150 151 143 139 141 139 135 134 136 131 127 125 129 138 146 154 148 141 133
202 182 220 202 204 217 209 206 176 228 206 194 204 211 209 204 200 199 196 197 198 205 207 203 183 179 184 190 177 177 179 167 163 160 151 132 134 135 139 145 138 137 137 139 135 139 146 142 141
186 204 194 206 185 224 225 221 207 222 224 205 202 208 204 203 204 207 213 205 203 206 211 205 198 190 194 195 188 191 191 192 185 167 163 149 139 139 140 151 148 145 154 149 144 144 155 157 154
203 203 208 204 190 205 243 234 216 188 205 216 211 205 201 204 212 213 218 217 212 210 217 211 206 203 201 202 201 195 197 206 205 189 168 162 170 161 157 159 160 154 155 160 159 161 166 162 159
205 206 201 205 204 204 234 263 221 213 218 208 212 207 206 213 226 221 227 229 227 220 219 220 212 212 213 208 207 207 206 206 209 204 192 159 183 182 176 176 168 175 160 168 179 175 175 171 159
209 202 197 203 204 203 205 231 238 234 216 205 202 212 220 228 234 235 225 231 231 227 220 220 217 215 219 216 212 213 214 213 212 213 206 193 187 190 194 180 179 176 181 187 186 196 185 182 179
206 199 188 209 212 198 213 221 231 230 226 216 214 220 225 229 227 231 245 231 239 231 229 224 222 220 221 222 217 213 219 219 218 219 207 204 204 191 198 196 189 188 191 191 193 198 209 205 197
210 199 192 207 199 204 227 243 248 237 231 227 221 221 225 232 237 238 228 216 216 237 229 226 225 221 222 224 224 219 221 223 222 219 220 211 214 201 72 205 208 200 198 202 200 199 204 205 213
210 210 192 202 193 201 217 235 245 240 232 229 227 226 224 228 231 243 248 235 240 228 226 227 228 228 227 226 225 224 225 226 225 225 221 221 220 222 209 208 210 216 211 212 214 213 206 203 206
206 203 211 198 209 202 207 245 252 247 229 226 226 225 224 230 233 238 245 252 251 211 218 233 234 228 231 234 232 232 232 231 228 229 230 224 226 228 231 228 222 219 218 228 229 226 225 217 209
Height
5888 5887 5886 5883 5885 5884 5887 5891 5891 5891 5892 5892 5891 5892 5892 5890 5891 5894 5892 5892 5892 5892 5892 5892 5892 5891 5891 5891 5891 5890 5890 5889 5889 5890 5890 5891 5891 5892 5893 5893 5895 5896 5897 5897 5897 5898 5899 5900 5901
5889 5889 5887 5885 5885 5887 5890 5892 5893 5893 5893 5893 5893 5894 5894 5893 5893 5894 5894 5894 5894 5894 5893 5893 5893 5893 5893 5894 5893 5893 5892 5891 5890 5890 5891 5893 5894 5894 5895 5896 5898 5899 5899 5899 5900 5901 5902 5903 5904
5890 5889 5889 5889 5891 5892 5892 5893 5894 5895 5895 5894 5895 5896 5896 5896 5896 5896 5895 5896 5896 5896 5896 5895 5895 5896 5897 5897 5896 5894 5893 5892 5892 5892 5893 5895 5896 5897 5898 5899 5899 5901 5902 5902 5902 5904 5905 5906 5907
5891 5891 5892 5893 5893 5893 5893 5894 5895 5897 5898 5898 5896 5898 5898 5898 5898 5897 5897 5897 5898 5898 5897 5897 5898 5898 5899 5899 5898 5896 5895 5894 5894 5894 5895 5897 5899 5900 5900 5900 5902 5904 5904 5905 5906 5906 5908 5909 5909
5892 5892 5892 5893 5893 5894 5895 5896 5897 5897 5898 5899 5900 5899 5900 5899 5901 5900 5900 5899 5899 5900 5900 5899 5900 5900 5901 5901 5900 5899 5898 5897 5897 5897 5899 5900 5901 5902 5903 5903 5905 5906 5907 5908 5909 5910 5911 5911 5913
5892 5893 5893 5894 5894 5895 5895 5897 5898 5898 5900 5900 5901 5900 5901 5901 5901 5902 5902 5901 5902 5902 5903 5902 5903 5903 5903 5902 5903 5903 5902 5901 5901 5901 5902 5902 5903 5904 5905 5906 5908 5910 5911 5911 5913 5913 5914 5915 5915
5893 5893 5894 5894 5895 5895 5896 5896 5898 5900 5901 5902 5902 5901 5902 5903 5903 5904 5904 5904 5904 5904 5905 5905 5905 5906 5905 5904 5905 5905 5905 5905 5905 5905 5905 5906 5906 5905 5906 5908 5910 5912 5914 5915 5915 5917 5917 5918 5918
5892 5893 5893 5894 5894 5894 5894 5894 5896 5900 5902 5902 5903 5903 5903 5904 5905 5905 5906 5905 5907 5907 5908 5908 5908 5908 5907 5907 5907 5908 5908 5908 5908 5908 5909 5909 5908 5909 5909 5910 5912 5915 5916 5917 5918 5919 5919 5920 5920
5892 5895 5893 5893 5893 5893 5891 5892 5895 5899 5901 5902 5903 5903 5905 5905 5906 5907 5907 5908 5909 5910 5910 5911 5910 5909 5909 5909 5910 5911 5911 5911 5911 5911 5912 5912 5912 5912 5913 5914 5916 5917 5918 5920 5920 5921 5922 5922 5923
5892 5894 5893 5893 5893 5892 5892 5892 5895 5898 5900 5903 5904 5905 5906 5906 5907 5908 5909 5910 5910 5912 5913 5913 5912 5911 5911 5911 5912 5913 5913 5913 5914 5914 5915 5915 5915 5916 5917 5917 5919 5920 5921 5922 5922 5922 5923 5924 5925
5890 5893 5892 5893 5892 5891 5891 5892 5894 5895 5900 5902 5903 5905 5907 5909 5909 5910 5912 5912 5912 5914 5915 5915 5914 5914 5914 5914 5914 5915 5916 5915 5916 5918 5917 5918 5919 5919 5920 5920 5921 5922 5923 5923 5924 5925 5925 5927 5926
5890 5891 5891 5892 5891 5890 5889 5890 5894 5894 5898 5902 5904 5904 5906 5909 5910 5911 5913 5913 5914 5914 5916 5916 5917 5917 5917 5916 5918 5918 5918 5918 5918 5919 5920 5920 5921 5923 5923 5924 5924 5924 5924 5925 5926 5926 5927 5928 5929
5888 5889 5890 5891 5890 5889 5888 5889 5892 5893 5897 5902 5904 5905 5908 5909 5912 5912 5914 5914 5916 5916 5917 5917 5919 5919 5920 5919 5920 5920 5920 5920 5920 5921 5923 5923 5924 5925 5926 5926 5926 5926 5927 5927 5928 5928 5929 5931 5932
5886 5888 5889 5890 5890 5889 5888 5887 5888 5890 5896 5901 5903 5905 5908 5910 5912 5912 5914 5915 5916 5917 5919 5919 5920 5922 5922 5922 5922 5922 5922 5922 5921 5923 5924 5925 5926 5928 5929 5929 5929 5930 5930 5930 5931 5931 5932 5933 5935
5885 5887 5888 5890 5890 5890 5889 5890 5889 5892 5898 5901 5904 5905 5908 5910 5912 5913 5915 5915 5917 5918 5919 5921 5922 5924 5925 5924 5924 5924 5924 5925 5925 5925 5926 5928 5929 5930 5931 5932 5932 5933 5933 5933 5933 5934 5935 5936 5938
5884 5885 5887 5889 5890 5890 5890 5891 5892 5893 5895 5901 5903 5904 5907 5910 5913 5914 5916 5917 5918 5919 5921 5923 5924 5925 5926 5926 5926 5926 5926 5927 5929 5928 5928 5929 5931 5932 5933 5934 5935 5937 5937 5937 5938 5939 5940 5940 5942
5882 5886 5891 5889 5887 5889 5889 5888 5889 5890 5896 5900 5903 5904 5907 5910 5913 5915 5917 5918 5920 5920 5922 5924 5925 5926 5927 5928 5928 5929 5929 5929 5930 5930 5931 5932 5933 5935 5936 5936 5938 5940 5941 5942 5943 5943 5945 5944 5946
5881 5887 5893 5887 5887 5888 5888 5887 5889 5892 5894 5898 5902 5904 5908 5910 5912 5914 5916 5919 5921 5922 5923 5925 5926 5928 5929 5930 5931 5932 5931 5932 5933 5933 5934 5934 5935 5937 5939 5939 5941 5942 5944 5946 5947 5948 5948 5949 5950
5884 5885 5887 5887 5886 5887 5887 5887 5886 5891 5894 5898 5902 5905 5908 5910 5912 5913 5916 5918 5921 5923 5924 5925 5927 5929 5931 5932 5933 5934 5934 5934 5935 5936 5936 5936 5937 5940 5941 5943 5944 5946 5947 5949 5951 5952 5952 5953 5954
5876 5886 5888 5884 5885 5884 5875 5885 5885 5891 5894 5898 5902 5903 5907 5909 5911 5913 5916 5919 5921 5923 5925 5926 5928 5930 5932 5933 5934 5936 5937 5937 5938 5939 5939 5939 5940 5942 5944 5945 5947 5948 5949 5952 5953 5955 5956 5956 5957
5871 5882 5881 5882 5883 5883 5884 5887 5892 5892 5895 5899 5901 5904 5906 5908 5911 5912 5915 5918 5921 5924 5925 5927 5929 5931 5932 5934 5936 5938 5940 5940 5940 5941 5941 5942 5942 5943 5946 5947 5949 5950 5951 5953 5955 5957 5958 5959 5960
5868 5876 5879 5880 5882 5885 5885 5887 5885 5890 5893 5898 5900 5902 5906 5908 5910 5912 5914 5917 5918 5922 5925 5927 5929 5931 5933 5935 5938 5940 5941 5942 5941 5943 5944 5944 5945 5945 5947 5950 5951 5952 5953 5955 5957 5959 5961 5961 5962
5869 5870 5870 5875 5882 5881 5881 5885 5886 5888 5893 5896 5897 5900 5905 5908 5910 5912 5914 5916 5917 5921 5924 5925 5928 5931 5933 5936 5939 5940 5942 5943 5944 5945 5945 5947 5948 5948 5949 5952 5953 5954 5955 5956 5958 5961 5963 5964 5964
5853 5860 5865 5872 5879 5886 5879 5883 5884 5886 5886 5891 5895 5899 5903 5907 5910 5911 5913 5914 5917 5920 5923 5925 5927 5930 5933 5935 5939 5941 5942 5943 5946 5947 5946 5948 5950 5950 5951 5953 5955 5956 5957 5958 5959 5962 5964 5966 5967
5846 5855 5862 5870 5873 5882 5883 5881 5875 5880 5879 5888 5894 5898 5901 5904 5909 5911 5913 5914 5917 5920 5922 5925 5927 5929 5932 5934 5937 5940 5942 5944 5946 5948 5949 5949 5951 5952 5952 5954 5955 5957 5958 5959 5961 5962 5964 5966 5968
5843 5853 5862 5866 5873 5881 5887 5877 5870 5874 5882 5885 5889 5894 5899 5902 5905 5907 5910 5912 5915 5917 5920 5922 5925 5927 5930 5932 5935 5939 5941 5943 5946 5948 5950 5951 5953 5952 5954 5955 5956 5956 5957 5959 5961 5963 5965 5966 5968
5840 5844 5860 5870 5874 5879 5875 5865 5864 5869 5876 5881 5886 5891 5895 5899 5901 5903 5906 5909 5914 5915 5917 5920 5922 5924 5927 5930 5933 5936 5939 5941 5944 5947 5949 5951 5951 5952 5954 5956 5957 5958 5959 5959 5961 5963 5965 5967 5968
5833 5843 5852 5857 5866 5873 5868 5865 5866 5864 5874 5879 5883 5888 5891 5894 5896 5898 5903 5906 5908 5911 5913 5915 5918 5921 5923 5927 5931 5934 5936 5940 5943 5945 5948 5950 5951 5953 5961 5956 5957 5958 5960 5961 5961 5962 5964 5966 5968
5829 5836 5840 5853 5859 5867 5864 5861 5855 5864 5870 5875 5880 5884 5888 5891 5893 5895 5897 5900 5903 5908 5903 5908 5913 5918 5921 5924 5928 5932 5934 5937 5941 5943 5946 5949 5950 5952 5955 5955 5956 5958 5959 5961 5962 5963 5964 5965 5968
5817 5827 5836 5842 5850 5852 5860 5852 5852 5860 5864 5868 5874 5879 5883 5885 5889 5891 5891 5893 5898 5899 5867 5893 5910 5913 5917 5921 5926 5929 5933 5935 5938 5941 5944 5946 5949 5951 5953 5954 5956 5957 5958 5960 5962 5963 5964 5965 5966